Regional Weather Roundup
Issued by NWS Bismarck, ND

Home | Current Version | Previous Version | Text Only | Print | Product List | Glossary On
Versions: 1 2 3 4 5 6 7 8 9 10 11 12 13 14 15 16 17 18 19 20 21 22 23 24 25 26 27 28 29 30 31 32 33 34 35 36 37 38 39 40 41 42 43 44 45 46 47 48 49 50
046
ASUS43 KBIS 300110
RWRBIS

NWR BROADCAST TEXT
NATIONAL WEATHER SERVICE BISMARCK ND
800 PM CDT WED MAR 29 2017

NOTE: "FAIR" INDICATES FEW OR NO CLOUDS BELOW 12,000 FEET WITH NO
SIGNIFICANT WEATHER AND/OR OBSTRUCTIONS TO VISIBILITY.


CITY           SKY/WX    TMP DP  RH WIND       PRES   REMARKS
WILLISTON      FAIR      56  31  38 SW7       29.85F
MINOT          FAIR      51  45  79 SE6       29.86F
MINOT AFB      FAIR      48  46  93 SE7       29.85F
BISMARCK       FAIR      53  38  56 SE9       29.92F
DICKINSON      FAIR      51  30  44 NW8       29.85F
GARRISON         N/A     51  37  58 S5        29.86F
HETTINGER ARPT CLOUDY    56  37  49 S10       29.91S
JAMESTOWN      FAIR      51  35  54 S10       29.97S
HAZEN          FAIR      55  39  54 S13       29.88S
LINTON         FAIR      52  39  62 S12       29.96F
MANDAN         MOCLDY    54  39  58 S9        29.92S
STANLEY        FAIR      50  39  66 W7        29.88F
TIOGA          FAIR      54  36  50 SW8       29.86F
WATFORD CITY   FAIR      55  32  41 NW6       29.85F
$$

CITY           SKY/WX    TMP DP  RH WIND       PRES   REMARKS
GRAND FORKS    FAIR      53  42  66 S13       29.99F
GRAND FORKS AF CLOUDY    53  41  64 S16       29.99F
DEVILS LAKE    CLOUDY    48  39  71 S10       29.93F
FARGO          FAIR      54  36  50 S18G25    30.05S
CAVALIER       FAIR      54  45  71 S9        29.94F
GRAFTON        FAIR      52  43  71 S14       29.99F
GWINNER        CLEAR     50  36  57 MISG      30.04S
LANGDON        FAIR      46  41  81 N5        29.93F
ROLLA          LGT RAIN  43  43 100 W9        29.92S
$$

CITY           SKY/WX    TMP DP  RH WIND       PRES   REMARKS
ABERDEEN       FAIR      50  33  52 SE14      30.04R
MOBRIDGE       CLOUDY    56  30  37 SE12      29.94S
BUFFALO          N/A     58  32  37 NE3       29.83F
RAPID CITY     FAIR      51  39  63 SE8       29.94F
GLASGOW        FAIR      56  28  34 SW8       29.82F
SIDNEY         FAIR      52  30  43 NW9       29.86S
WOLF POINT     FAIR      56  30  37 CALM      29.84F
GLENDIVE       FAIR      54  32  43 W6        29.87S
MILES CITY     FAIR      56  28  34 CALM      29.87F
BAKER          FAIR      54  28  36 NW5       29.89F
$$

CITY           SKY/WX    TMP DP  RH WIND       PRES   REMARKS
BILLINGS       MOCLDY    58  34  40 SE6       29.83F
GREAT FALLS    FAIR      54  34  46 SW31G38   29.76F
REGINA         PTCLDY    52  30  43 W6        29.78F
ESTEVAN        PTCLDY    50  36  57 SW5       29.82S
$$





USA.gov is the U.S. government's official web portal to all federal, state and local government web resources and services.